#timestamp,LO_Frequency,Hit,StdDev 
1513000815.7,286047001.4,N
1513000835.5,286046998.1,N
1513000855.3,286046997.2,N
1513000875.2,286046994.6,N
1513000895.0,286046991.1,Y
1513000895.9,286046991.1,P
1513000915.8,286046992.9,N
1513000935.6,286046994.6,N
1513000955.4,286046999.5,N
1513000975.2,286047001.4,N
1513000995.1,286047005.3,N
1513000996.0,286047005.3,N
1513001015.8,286047005.9,N
1513001035.6,286046999.7,N
1513001055.5,286047007.1,N
1513001075.3,286047008.5,N
1513001095.1,286047009.0,N
1513001115.9,286047008.0,N
1513001135.7,286047002.6,N
1513001155.5,286047000.8,N
1513001175.4,286046999.2,N
1513001195.2,286047002.5,N
1513001215.0,286047003.9,N
1513001215.9,286047003.9,N
1513001235.8,286046998.4,N
1513001255.6,286046998.3,N
1513001275.4,286046998.5,N
1513001295.2,286046997.5,N
1513001315.1,286046994.8,N
1513001316.0,286046994.8,N
1513001335.8,286046991.7,N
1513001355.6,286046998.0,N
1513001375.5,286046998.0,N
1513001395.3,286046996.5,N
1513001415.1,286046995.6,N
1513001435.9,286046991.9,N
1513001455.7,286046992.4,N
1513001475.5,286046990.2,N
1513001495.4,286046991.0,N
1513001515.2,286046990.1,N
1513001535.0,286046993.1,N
1513001535.9,286046993.1,N
1513001555.8,286046993.0,N
1513001575.6,286046994.8,N
1513001595.4,286046994.4,N
1513001615.2,286046991.0,N
1513001635.1,286046989.7,N
1513001636.0,286046989.7,N
1513001655.8,286046985.8,Y
1513001675.7,286046993.7,P
1513001695.5,286046991.9,P
1513001715.3,286046994.8,P
1513001735.2,286046995.7,Y
1513001755.9,286047003.5,P
1513001775.7,286047001.8,N
1513001795.5,286047002.1,N
1513001815.4,286046999.9,N
1513001835.2,286046996.7,N
1513001855.0,286046996.7,N
1513001855.9,286046996.7,N
1513001875.8,286047000.3,N
1513001895.6,286047003.6,N
1513001915.4,286047003.4,N
1513001935.3,286047004.4,N
1513001955.1,286046997.2,N
1513001956.0,286046997.2,N
1513001975.8,286046993.3,N
1513001995.7,286046995.7,N
1513002015.5,286046995.6,N
1513002035.3,286046999.0,N
1513002055.1,286046999.5,N
1513002075.9,286046998.2,N
1513002095.7,286046997.5,N
1513002115.5,286046997.0,N
1513002135.4,286046997.3,N
1513002155.2,286047001.2,N
1513002175.0,286046999.3,N
1513002175.9,286046999.3,N
1513002195.8,286046997.9,N
1513002215.6,286046996.4,N
1513002235.4,286047001.2,N
1513002255.3,286046998.9,N
1513002275.1,286046999.1,N
1513002276.0,286046999.1,N
1513002295.8,286046997.5,N
1513002315.7,286046996.7,N
1513002335.5,286046996.8,N
1513002355.3,286046997.8,N
1513002375.1,286046995.2,N
1513002395.9,286046994.9,N
1513002415.7,286046999.1,N
1513002435.5,286046997.3,N
1513002455.4,286046997.1,N
1513002475.2,286047001.1,N
1513002495.0,286046997.1,N
1513002495.9,286046997.1,N
1513002515.8,286046999.5,N
1513002535.6,286047000.2,N
1513002555.4,286047003.4,N
1513002575.3,286047001.9,N
1513002595.1,286046997.4,N
1513002596.0,286046997.4,N
1513002615.8,286046997.9,N
1513002635.7,286046996.6,N
1513002655.5,286046998.5,N
1513002675.3,286046996.7,N
1513002695.2,286046995.3,N
1513002715.9,286046995.0,N
1513002735.7,286046998.4,N
1513002755.6,286047000.8,N
1513002775.4,286046998.9,N
1513002795.2,286047001.2,N
1513002815.0,286047001.0,N
1513002816.0,286047001.0,N
1513002835.8,286046998.1,N
1513002855.6,286047001.3,N
1513002875.4,286046999.3,N
1513002895.3,286046998.0,N
1513002915.1,286046993.7,N
1513002935.8,286046995.2,N
1513002955.7,286046995.3,N
1513002975.5,286046994.1,N
1513002995.3,286046994.6,N
1513003015.2,286046995.6,N
1513003035.9,286046993.3,N
1513003055.7,286046995.2,N
1513003075.6,286046997.8,N
1513003095.4,286046995.5,N
1513003115.2,286046998.8,N
1513003135.0,286046998.2,N
1513003136.0,286046998.2,N
1513003155.8,286046998.1,N
1513003175.6,286047005.3,N
1513003195.4,286047003.6,N
1513003215.3,286047005.5,N
1513003235.1,286047002.8,N
1513003255.8,286047002.0,N
1513003275.7,286046997.2,N
1513003295.5,286046993.6,N
1513003315.3,286046996.3,N
1513003335.2,286047000.0,N
1513003355.9,286047000.2,N
1513003375.7,286046995.0,N
1513003395.6,286046999.5,N
1513003415.4,286046997.9,N
1513003435.2,286047000.1,N
1513003455.1,286047003.6,N
1513003456.0,286047003.6,N
1513003475.8,286047007.6,N
1513003495.6,286047009.1,N
1513003515.4,286047007.9,N
1513003535.3,286047010.2,N
1513003555.1,286047007.9,N
1513003575.8,286047006.9,N
1513003595.7,286047010.1,N
1513003615.5,286047009.8,N
1513003635.3,286047007.3,N
1513003655.2,286047005.5,N
1513003675.9,286046999.7,N
1513003695.7,286047000.8,N
1513003715.6,286046998.2,N
1513003735.4,286046999.2,N
1513003755.2,286046999.0,N
1513003775.1,286046998.4,N
1513003776.0,286046998.4,N
1513003795.8,286046999.9,N
1513003815.6,286047001.7,N
1513003835.4,286047002.3,N
1513003855.3,286047004.8,N
1513003875.1,286047006.2,N
1513003895.8,286047004.5,N
1513003915.7,286047005.3,N
1513003935.5,286047004.0,N
1513003955.3,286046999.8,N
1513003975.2,286047003.6,N
1513003995.9,286047008.0,N
1513004015.7,286047007.3,N
1513004035.6,286047006.7,N
1513004055.4,286047008.1,N
1513004075.2,286047009.2,N
1513004095.1,286047005.2,N
1513004096.0,286047005.2,N
1513004115.8,286047006.9,N
1513004135.6,286047009.3,N
1513004155.4,286047009.5,N
1513004175.3,286047008.3,N
1513004195.1,286047007.6,N
1513004215.8,286047003.5,N
1513004235.7,286047003.4,N
1513004255.5,286047004.5,N
1513004275.3,286047007.0,N
1513004295.2,286047007.5,N
1513004315.9,286047003.4,N
1513004335.7,286047005.4,N
1513004355.6,286047007.3,N
1513004375.4,286047004.2,N
1513004395.2,286047007.3,Y
